Weather History for KMLS - September, 2013

Change the Weather History Date:

Wednesday, September 18, 2013

  Actual Average Record
Temperature  
Mean Temperature 64 °F 59 °F  
Max Temperature 76 °F 73 °F 95 °F (1984)
Min Temperature 52 °F 45 °F 28 °F (1965)
Degree Days  
Heating Degree Days 1 7  
Month to date heating degree days 1 83  
Since 1 July heating degree days 1 117  
Cooling Degree Days 0 1  
Month to date cooling degree days 142 49  
Year to date cooling degree days 877 721  
Growing Degree Days 14 (Base 50)    
Moisture  
Dew Point 52 °F    
Average Humidity 68    
Maximum Humidity 97    
Minimum Humidity 38    
Precipitation  
Precipitation 0.01 in 0.03 in 1.26 in (1978)
Month to date precipitation 1.38 0.62  
Year to date precipitation 15.22 10.38  
Sea Level Pressure  
Sea Level Pressure 29.67 in    
Wind  
Wind Speed 11 mph (WSW)    
Max Wind Speed 28 mph    
Max Gust Speed 37 mph    
Visibility 10 miles    
Events Rain    
T = Trace of Precipitation, MM = Missing Value Source: NWS Daily Summary

Daily Weather History Graph

Daily Weather History Graph

Search for Another Location

Airport or City:

Trip Planner

Search our weather history database for the weather conditions in past years. The results will help you decide how hot, cold, wet, or windy it might be!

Date:

Astronomy

Sep. 18, 2013 Rise Set
Actual Time 6:45 AM MDT 7:08 PM MDT
Civil Twilight 6:15 AM MDT 7:38 PM MDT
Nautical Twilight 5:39 AM MDT 8:14 PM MDT
Astronomical Twilight 5:02 AM MDT 8:50 PM MDT
Moon 6:31 PM MDT (9/18) 5:50 AM MDT (9/18)
Length of Visible Light 13h 23m
Length of Day
12h 22m
Waxing Gibbous, 99% of the Moon is Illuminated
Sep 18
Waxing Gibbous
Sep 19
Full
Sep 26
Last Quarter
Oct 4
New
Oct 11
First Quarter

Hourly Weather History & Observations

Time (MDT) Temp. Dew Point Humidity Pressure Visibility Wind Dir Wind Speed Gust Speed Precip Events Conditions
12:53 AM 63.0 °F 59.0 °F 87% 29.62 in 10.0 mi SSE 6.9 mph - 0.00 in   Overcast
1:53 AM 62.1 °F 59.0 °F 90% 29.60 in 10.0 mi South 8.1 mph - 0.00 in   Overcast
2:53 AM 61.0 °F 59.0 °F 93% 29.57 in 10.0 mi SSE 9.2 mph - 0.00 in   Mostly Cloudy
3:53 AM 62.1 °F 57.9 °F 86% 29.54 in 10.0 mi SE 4.6 mph - N/A   Partly Cloudy
4:53 AM 62.1 °F 57.0 °F 84% 29.55 in 10.0 mi West 3.5 mph - 0.00 in   Clear
5:53 AM 61.0 °F 57.0 °F 87% 29.56 in 10.0 mi West 5.8 mph - N/A   Clear
6:53 AM 60.1 °F 55.9 °F 86% 29.58 in 10.0 mi SW 4.6 mph - N/A   Clear
7:53 AM 62.1 °F 57.0 °F 84% 29.61 in 10.0 mi SSW 8.1 mph - N/A   Clear
8:53 AM 64.9 °F 57.0 °F 75% 29.61 in 10.0 mi SSW 9.2 mph - N/A   Clear
9:53 AM 68.0 °F 55.9 °F 65% 29.62 in 10.0 mi South 5.8 mph - N/A   Clear
10:53 AM 71.1 °F 55.0 °F 57% 29.61 in 10.0 mi WSW 11.5 mph - N/A   Clear
11:53 AM 73.9 °F 52.0 °F 46% 29.60 in 10.0 mi West 15.0 mph 27.6 mph N/A   Clear
12:53 PM 75.0 °F 52.0 °F 44% 29.59 in 10.0 mi NW 16.1 mph 20.7 mph N/A   Clear
1:53 PM 73.9 °F 50.0 °F 43% 29.62 in 10.0 mi West 13.8 mph - N/A   Scattered Clouds
2:53 PM 73.9 °F 50.0 °F 43% 29.63 in 10.0 mi WNW 6.9 mph 17.3 mph N/A   Partly Cloudy
3:53 PM 73.0 °F 46.0 °F 38% 29.64 in 10.0 mi NW 15.0 mph 25.3 mph N/A   Clear
4:53 PM 66.9 °F 44.1 °F 44% 29.69 in 10.0 mi NW 26.5 mph 36.8 mph N/A   Overcast
5:53 PM 62.1 °F 50.0 °F 65% 29.75 in 10.0 mi West 16.1 mph - 0.00 in Rain Light Rain
6:53 PM 61.0 °F 51.1 °F 70% 29.76 in 10.0 mi WNW 12.7 mph - 0.01 in   Clear
7:53 PM 60.1 °F 48.0 °F 64% 29.80 in 10.0 mi WNW 13.8 mph - N/A   Clear
8:53 PM 55.9 °F 45.0 °F 67% 29.84 in 10.0 mi WNW 13.8 mph - N/A   Clear
9:53 PM 54.0 °F 44.1 °F 69% 29.86 in 10.0 mi West 4.6 mph - N/A   Clear
10:53 PM 53.1 °F 45.0 °F 74% 29.87 in 10.0 mi WNW 9.2 mph - N/A   Clear
11:53 PM 52.0 °F 46.0 °F 80% 29.87 in 10.0 mi WNW 11.5 mph - N/A   Clear